Location: Gleizolles
(44.4833°N, 6.7667°E)
Time: 23:22:43
(UTC+00:00)

Cosmos 1825 - Pass Details

Date: 09 April 2020
Orbit: 502 x 509 km, 82.5° (Epoch: 02 June)

Event Time Altitude Azimuth Distance (km) Brightness Sun altitude
Rises 20:01:26 0° 7° (N) 2,627 6.1 -19.0°
Reaches altitude 10° 20:04:12 10° 29° (NNE) 1,734 4.9 -19.4°
Enters shadow 20:05:29 15° 47° (NE) 1,457 4.3 -19.6°
